Time,TemperatureF,DewpointF,PressureIn,WindDirection,WindDirectionDegrees,WindSpeedMPH,WindSpeedGustMPH,Humidity,HourlyPrecipIn,Conditions,Clouds,dailyrainin,SoftwareType,DateUTC
2013-03-09 01:58:00,32.4,25.0,30.03,East,90,5.0,-999.0,74,-99.99,,,0.05,meteohub,2013-03-09 07:58:00,
2013-03-09 02:03:00,32.4,25.0,30.03,East,90,5.0,-999.0,74,0.00,,,0.07,meteohub,2013-03-09 08:03:00,
2013-03-09 02:08:00,32.4,25.0,30.02,East,90,5.0,5.0,74,0.00,,,0.07,meteohub,2013-03-09 08:08:00,
2013-03-09 02:13:00,32.2,26.1,30.02,East,90,4.0,5.0,78,0.00,,,0.07,meteohub,2013-03-09 08:13:00,
2013-03-09 02:18:00,32.2,26.1,30.02,East,90,4.0,5.0,78,0.02,,,0.09,meteohub,2013-03-09 08:18:00,
2013-03-09 02:23:00,32.0,26.6,30.02,SE,135,5.0,5.0,80,0.02,,,0.09,meteohub,2013-03-09 08:23:00,
2013-03-09 02:28:00,32.0,26.8,30.01,NE,45,4.0,5.0,81,0.04,,,0.11,meteohub,2013-03-09 08:28:00,
2013-03-09 02:33:00,32.0,26.8,30.01,East,90,5.0,5.0,81,0.05,,,0.12,meteohub,2013-03-09 08:33:00,
2013-03-09 02:38:00,32.0,26.8,30.01,ESE,113,7.0,8.0,81,0.06,,,0.13,meteohub,2013-03-09 08:38:00,
2013-03-09 02:43:00,32.0,27.1,30.01,East,90,7.0,8.0,82,0.06,,,0.13,meteohub,2013-03-09 08:43:00,
2013-03-09 02:48:00,32.0,27.5,30.00,East,90,8.0,8.0,83,0.07,,,0.14,meteohub,2013-03-09 08:48:00,
2013-03-09 02:53:00,31.8,27.5,29.99,East,90,8.0,8.0,84,0.08,,,0.15,meteohub,2013-03-09 08:53:00,
2013-03-09 02:58:00,31.8,27.9,29.99,East,90,6.0,9.0,85,0.09,,,0.17,meteohub,2013-03-09 08:58:00,
2013-03-09 03:03:00,31.8,27.9,29.99,SE,135,7.0,12.0,85,0.11,,,0.18,meteohub,2013-03-09 09:03:00,
2013-03-09 03:08:00,31.8,27.9,29.98,East,90,6.0,12.0,85,0.11,,,0.18,meteohub,2013-03-09 09:08:00,
2013-03-09 03:13:00,31.8,28.0,29.98,SE,135,6.0,12.0,86,0.09,,,0.18,meteohub,2013-03-09 09:13:00,
2013-03-09 03:18:00,32.0,28.0,29.98,SE,135,6.0,7.0,85,0.09,,,0.19,meteohub,2013-03-09 09:18:00,
2013-03-09 03:23:00,32.0,28.0,29.98,East,90,5.0,7.0,85,0.08,,,0.19,meteohub,2013-03-09 09:23:00,
2013-03-09 03:28:00,32.0,28.2,29.97,NNW,338,7.0,7.0,86,0.09,,,0.20,meteohub,2013-03-09 09:28:00,
2013-03-09 03:33:00,32.0,28.2,29.97,East,90,7.0,8.0,86,0.08,,,0.20,meteohub,2013-03-09 09:33:00,
2013-03-09 03:38:00,32.0,28.2,29.97,SE,135,5.0,8.0,86,0.07,,,0.20,meteohub,2013-03-09 09:38:00,
2013-03-09 03:43:00,32.0,28.6,29.97,East,90,5.0,8.0,87,0.07,,,0.21,meteohub,2013-03-09 09:43:00,
2013-03-09 03:48:00,32.0,28.6,29.96,West,270,4.0,8.0,87,0.07,,,0.22,meteohub,2013-03-09 09:48:00,
2013-03-09 03:53:00,32.0,28.6,29.96,East,90,8.0,8.0,87,0.07,,,0.22,meteohub,2013-03-09 09:53:00,
2013-03-09 03:58:00,32.0,28.6,29.95,SE,135,3.0,8.0,87,0.07,,,0.24,meteohub,2013-03-09 09:58:00,
2013-03-09 04:03:00,32.2,28.8,29.95,SSE,158,5.0,9.0,87,0.07,,,0.25,meteohub,2013-03-09 10:03:00,
2013-03-09 04:08:00,32.2,28.8,29.94,SSE,158,5.0,9.0,87,0.07,,,0.25,meteohub,2013-03-09 10:08:00,
2013-03-09 04:13:00,32.2,28.9,29.94,East,90,4.0,9.0,88,0.08,,,0.26,meteohub,2013-03-09 10:13:00,
2013-03-09 04:18:00,32.2,28.9,29.94,SE,135,4.0,7.0,88,0.08,,,0.27,meteohub,2013-03-09 10:18:00,
2013-03-09 04:23:00,32.4,29.1,29.94,East,90,4.0,7.0,88,0.07,,,0.27,meteohub,2013-03-09 10:23:00,
2013-03-09 04:28:00,32.5,29.7,29.94,SE,135,7.0,9.0,89,0.07,,,0.27,meteohub,2013-03-09 10:28:00,
2013-03-09 04:33:00,32.5,29.7,29.94,East,90,4.0,11.0,89,0.08,,,0.28,meteohub,2013-03-09 10:33:00,
2013-03-09 04:38:00,32.5,29.7,29.93,ENE,68,4.0,11.0,89,0.08,,,0.30,meteohub,2013-03-09 10:38:00,
2013-03-09 04:43:00,32.5,29.7,29.93,ENE,68,9.0,11.0,89,0.07,,,0.30,meteohub,2013-03-09 10:43:00,
2013-03-09 04:48:00,32.5,29.7,29.93,North,0,4.0,10.0,89,0.07,,,0.30,meteohub,2013-03-09 10:48:00,
2013-03-09 04:53:00,32.7,29.8,29.93,SW,225,5.0,10.0,89,0.07,,,0.30,meteohub,2013-03-09 10:53:00,
2013-03-09 04:58:00,32.7,29.8,29.93,SW,225,5.0,11.0,89,0.07,,,0.31,meteohub,2013-03-09 10:58:00,
2013-03-09 05:03:00,32.7,30.2,29.92,East,90,7.0,11.0,90,0.06,,,0.31,meteohub,2013-03-09 11:03:00,
2013-03-09 05:08:00,32.7,30.2,29.93,SW,225,8.0,11.0,90,0.06,,,0.31,meteohub,2013-03-09 11:08:00,
2013-03-09 05:13:00,32.7,30.2,29.92,NE,45,4.0,10.0,90,0.05,,,0.31,meteohub,2013-03-09 11:13:00,
2013-03-09 05:18:00,32.7,30.2,29.92,SE,135,8.0,10.0,90,0.05,,,0.32,meteohub,2013-03-09 11:18:00,
2013-03-09 05:23:00,32.9,30.4,29.92,SW,225,4.0,10.0,90,0.05,,,0.32,meteohub,2013-03-09 11:23:00,
2013-03-09 05:28:00,32.9,30.4,29.92,East,90,5.0,10.0,90,0.04,,,0.32,meteohub,2013-03-09 11:28:00,
2013-03-09 05:33:00,32.9,30.4,29.92,North,0,4.0,11.0,90,0.04,,,0.32,meteohub,2013-03-09 11:33:00,
2013-03-09 05:38:00,32.9,30.4,29.92,NE,45,7.0,11.0,90,0.02,,,0.32,meteohub,2013-03-09 11:38:00,
2013-03-09 05:43:00,32.9,30.4,29.92,SE,135,7.0,11.0,90,0.02,,,0.32,meteohub,2013-03-09 11:43:00,
2013-03-09 05:48:00,32.9,30.4,29.92,SW,225,7.0,9.0,90,0.02,,,0.32,meteohub,2013-03-09 11:48:00,
2013-03-09 05:53:00,32.9,30.4,29.92,SW,225,7.0,8.0,90,0.02,,,0.32,meteohub,2013-03-09 11:53:00,
2013-03-09 05:58:00,32.9,30.4,29.92,SE,135,6.0,7.0,90,0.01,,,0.32,meteohub,2013-03-09 11:58:00,
2013-03-09 06:03:00,32.9,30.4,29.92,SE,135,7.0,11.0,90,0.02,,,0.33,meteohub,2013-03-09 12:03:00,
2013-03-09 06:08:00,32.9,30.4,29.92,SE,135,7.0,11.0,90,0.02,,,0.33,meteohub,2013-03-09 12:08:00,
2013-03-09 06:13:00,33.1,30.4,29.91,NW,315,10.0,11.0,90,0.01,,,0.33,meteohub,2013-03-09 12:13:00,
2013-03-09 06:18:00,33.1,30.4,29.91,South,180,2.0,10.0,90,0.01,,,0.33,meteohub,2013-03-09 12:18:00,
2013-03-09 06:23:00,33.1,30.4,29.91,East,90,4.0,10.0,90,0.01,,,0.33,meteohub,2013-03-09 12:23:00,
2013-03-09 06:28:00,33.1,30.4,29.91,South,180,5.0,10.0,90,0.01,,,0.33,meteohub,2013-03-09 12:28:00,
2013-03-09 06:33:00,33.3,30.6,29.91,East,90,5.0,10.0,90,0.01,,,0.33,meteohub,2013-03-09 12:33:00,
2013-03-09 06:38:00,33.1,30.4,29.90,East,90,8.0,8.0,90,0.01,,,0.33,meteohub,2013-03-09 12:38:00,
2013-03-09 06:43:00,33.1,30.4,29.90,SE,135,8.0,10.0,90,0.02,,,0.34,meteohub,2013-03-09 12:43:00,
2013-03-09 06:48:00,33.1,30.4,29.90,North,0,6.0,10.0,90,0.02,,,0.34,meteohub,2013-03-09 12:48:00,
2013-03-09 06:53:00,33.1,30.4,29.90,East,90,8.0,10.0,90,0.02,,,0.34,meteohub,2013-03-09 12:53:00,
2013-03-09 06:58:00,33.3,30.6,29.89,East,90,6.0,9.0,90,0.01,,,0.34,meteohub,2013-03-09 12:58:00,
2013-03-09 07:03:00,33.3,30.6,29.88,East,90,8.0,10.0,90,0.01,,,0.34,meteohub,2013-03-09 13:03:00,
2013-03-09 07:08:00,33.3,30.6,29.89,NE,45,4.0,10.0,90,0.01,,,0.34,meteohub,2013-03-09 13:08:00,
2013-03-09 07:14:00,33.3,30.6,29.88,SE,135,6.0,10.0,90,0.01,,,0.34,meteohub,2013-03-09 13:14:00,
2013-03-09 07:19:00,33.3,30.9,29.88,East,90,5.0,8.0,91,0.01,,,0.34,meteohub,2013-03-09 13:19:00,
2013-03-09 07:24:00,33.3,30.9,29.88,NW,315,4.0,10.0,91,0.01,,,0.34,meteohub,2013-03-09 13:24:00,
2013-03-09 07:29:00,33.3,30.9,29.88,SE,135,6.0,10.0,91,0.01,,,0.34,meteohub,2013-03-09 13:29:00,
2013-03-09 07:34:00,33.3,30.9,29.88,East,90,7.0,7.0,91,0.01,,,0.34,meteohub,2013-03-09 13:34:00,
2013-03-09 07:39:00,33.4,31.1,29.87,SE,135,6.0,8.0,91,0.01,,,0.34,meteohub,2013-03-09 13:39:00,
2013-03-09 07:44:00,33.4,31.1,29.88,SE,135,3.0,9.0,91,0.00,,,0.34,meteohub,2013-03-09 13:44:00,
2013-03-09 07:49:00,33.4,31.1,29.87,East,90,6.0,9.0,91,0.00,,,0.34,meteohub,2013-03-09 13:49:00,
2013-03-09 07:54:00,33.4,31.1,29.87,North,0,8.0,9.0,91,0.00,,,0.34,meteohub,2013-03-09 13:54:00,
2013-03-09 07:59:00,33.4,31.1,29.87,ENE,68,4.0,7.0,91,0.00,,,0.34,meteohub,2013-03-09 13:59:00,
2013-03-09 08:04:00,33.4,31.1,29.86,ENE,68,4.0,8.0,91,0.00,,,0.34,meteohub,2013-03-09 14:04:00,
2013-03-09 08:09:00,33.4,31.1,29.86,ENE,68,4.0,8.0,91,0.00,,,0.34,meteohub,2013-03-09 14:09:00,
2013-03-09 08:14:00,33.6,31.3,29.86,SE,135,6.0,7.0,91,0.00,,,0.34,meteohub,2013-03-09 14:14:00,
2013-03-09 08:19:00,33.6,31.3,29.86,East,90,4.0,6.0,91,0.00,,,0.34,meteohub,2013-03-09 14:19:00,
2013-03-09 08:24:00,33.6,31.3,29.87,East,90,2.0,6.0,91,0.00,,,0.34,meteohub,2013-03-09 14:24:00,
2013-03-09 08:29:00,33.6,31.3,29.86,WNW,293,4.0,6.0,91,0.00,,,0.34,meteohub,2013-03-09 14:29:00,
2013-03-09 08:34:00,33.8,31.1,29.86,ESE,113,4.0,5.0,90,0.00,,,0.34,meteohub,2013-03-09 14:34:00,
2013-03-09 08:39:00,33.8,31.1,29.86,SE,135,4.0,5.0,90,0.00,,,0.34,meteohub,2013-03-09 14:39:00,
2013-03-09 08:44:00,33.8,31.1,29.86,SE,135,7.0,7.0,90,0.00,,,0.34,meteohub,2013-03-09 14:44:00,
2013-03-09 08:49:00,33.8,31.1,29.84,South,180,6.0,7.0,90,0.00,,,0.34,meteohub,2013-03-09 14:49:00,
2013-03-09 08:54:00,34.0,31.3,29.84,East,90,4.0,7.0,90,0.00,,,0.34,meteohub,2013-03-09 14:54:00,
2013-03-09 08:59:00,34.0,31.3,29.83,East,90,6.0,7.0,90,0.00,,,0.34,meteohub,2013-03-09 14:59:00,
2013-03-09 09:04:00,34.0,31.3,29.83,ENE,68,6.0,7.0,90,0.00,,,0.34,meteohub,2013-03-09 15:04:00,
2013-03-09 09:09:00,34.0,31.3,29.83,SE,135,6.0,7.0,90,0.00,,,0.34,meteohub,2013-03-09 15:09:00,
2013-03-09 09:14:00,34.2,31.5,29.83,SE,135,7.0,7.0,90,0.00,,,0.34,meteohub,2013-03-09 15:14:00,
2013-03-09 09:19:00,34.2,31.5,29.83,NNE,23,6.0,7.0,90,0.00,,,0.34,meteohub,2013-03-09 15:19:00,
2013-03-09 09:24:00,34.2,31.5,29.82,SE,135,7.0,7.0,90,0.00,,,0.34,meteohub,2013-03-09 15:24:00,
2013-03-09 09:29:00,34.2,31.5,29.82,NE,45,11.0,11.0,90,0.00,,,0.34,meteohub,2013-03-09 15:29:00,
2013-03-09 09:34:00,34.2,31.5,29.82,SE,135,6.0,11.0,90,0.00,,,0.34,meteohub,2013-03-09 15:34:00,
2013-03-09 09:39:00,34.2,31.5,29.83,East,90,4.0,11.0,90,0.00,,,0.34,meteohub,2013-03-09 15:39:00,
2013-03-09 09:44:00,34.2,31.5,29.83,East,90,5.0,11.0,90,0.00,,,0.34,meteohub,2013-03-09 15:44:00,
2013-03-09 09:49:00,34.2,31.5,29.83,SE,135,2.0,9.0,90,0.00,,,0.34,meteohub,2013-03-09 15:49:00,
2013-03-09 09:54:00,34.2,31.5,29.83,ESE,113,4.0,7.0,90,0.00,,,0.34,meteohub,2013-03-09 15:54:00,
2013-03-09 09:59:00,34.3,31.6,29.83,SE,135,4.0,8.0,90,0.00,,,0.34,meteohub,2013-03-09 15:59:00,
2013-03-09 10:04:00,34.3,31.6,29.82,South,180,2.0,8.0,90,0.00,,,0.34,meteohub,2013-03-09 16:04:00,
2013-03-09 10:09:00,34.3,31.6,29.83,ESE,113,3.0,8.0,90,0.00,,,0.34,meteohub,2013-03-09 16:09:00,
2013-03-09 10:14:00,34.3,31.6,29.82,ESE,113,7.0,7.0,90,0.00,,,0.34,meteohub,2013-03-09 16:14:00,
2013-03-09 10:19:00,34.3,31.6,29.82,East,90,2.0,4.0,90,0.00,,,0.34,meteohub,2013-03-09 16:19:00,
2013-03-09 10:24:00,34.3,31.6,29.82,East,90,3.0,7.0,90,0.00,,,0.34,meteohub,2013-03-09 16:24:00,
2013-03-09 10:30:00,34.5,31.8,29.82,East,90,4.0,7.0,90,0.00,,,0.34,meteohub,2013-03-09 16:30:00,
2013-03-09 10:35:00,34.7,32.0,29.82,East,90,4.0,6.0,90,0.00,,,0.34,meteohub,2013-03-09 16:35:00,
2013-03-09 10:40:00,34.7,32.0,29.82,East,90,2.0,4.0,90,0.00,,,0.34,meteohub,2013-03-09 16:40:00,
2013-03-09 10:45:00,34.9,32.2,29.81,ESE,113,4.0,5.0,90,0.00,,,0.34,meteohub,2013-03-09 16:45:00,
2013-03-09 10:50:00,34.9,32.2,29.82,SE,135,6.0,6.0,90,0.00,,,0.34,meteohub,2013-03-09 16:50:00,
2013-03-09 10:55:00,34.9,32.2,29.81,East,90,3.0,6.0,90,0.00,,,0.34,meteohub,2013-03-09 16:55:00,
2013-03-09 11:00:00,34.9,32.2,29.81,SE,135,5.0,6.0,90,0.00,,,0.34,meteohub,2013-03-09 17:00:00,
2013-03-09 11:05:00,34.9,32.2,29.81,NE,45,4.0,7.0,90,0.01,,,0.35,meteohub,2013-03-09 17:05:00,
2013-03-09 11:10:00,34.9,32.2,29.80,South,180,4.0,7.0,90,0.01,,,0.35,meteohub,2013-03-09 17:10:00,
2013-03-09 11:15:00,35.1,32.4,29.81,SE,135,4.0,7.0,90,0.01,,,0.35,meteohub,2013-03-09 17:15:00,
2013-03-09 11:20:00,34.9,32.2,29.80,NE,45,4.0,5.0,90,0.01,,,0.35,meteohub,2013-03-09 17:20:00,
2013-03-09 11:25:00,34.9,32.2,29.80,South,180,4.0,5.0,90,0.01,,,0.35,meteohub,2013-03-09 17:25:00,
2013-03-09 11:30:00,35.1,32.4,29.80,East,90,4.0,7.0,90,0.01,,,0.35,meteohub,2013-03-09 17:30:00,
2013-03-09 11:35:00,35.1,32.4,29.79,ESE,113,7.0,8.0,90,0.01,,,0.35,meteohub,2013-03-09 17:35:00,
2013-03-09 11:40:00,35.1,32.4,29.79,East,90,7.0,8.0,90,0.01,,,0.35,meteohub,2013-03-09 17:40:00,
2013-03-09 11:45:00,35.1,32.4,29.78,East,90,4.0,8.0,90,0.02,,,0.37,meteohub,2013-03-09 17:45:00,
2013-03-09 11:50:00,35.1,32.4,29.78,SE,135,3.0,8.0,90,0.02,,,0.37,meteohub,2013-03-09 17:50:00,
2013-03-09 11:55:00,35.2,32.5,29.78,SE,135,4.0,8.0,90,0.02,,,0.37,meteohub,2013-03-09 17:55:00,
2013-03-09 12:00:00,35.1,32.4,29.77,NE,45,4.0,5.0,90,0.02,,,0.37,meteohub,2013-03-09 18:00:00,
2013-03-09 12:05:00,35.1,32.4,29.78,NE,45,4.0,5.0,90,0.01,,,0.37,meteohub,2013-03-09 18:05:00,
2013-03-09 12:10:00,35.1,32.4,29.77,East,90,4.0,5.0,90,0.01,,,0.37,meteohub,2013-03-09 18:10:00,
2013-03-09 12:15:00,35.1,32.4,29.78,East,90,5.0,5.0,90,0.01,,,0.37,meteohub,2013-03-09 18:15:00,
2013-03-09 12:20:00,35.1,32.4,29.78,SE,135,6.0,6.0,90,0.01,,,0.37,meteohub,2013-03-09 18:20:00,
2013-03-09 12:25:00,35.1,32.4,29.77,SE,135,4.0,7.0,90,0.01,,,0.37,meteohub,2013-03-09 18:25:00,
2013-03-09 12:30:00,35.1,32.4,29.77,East,90,3.0,7.0,90,0.01,,,0.37,meteohub,2013-03-09 18:30:00,
2013-03-09 12:35:00,35.1,32.4,29.77,North,0,3.0,7.0,90,0.01,,,0.37,meteohub,2013-03-09 18:35:00,
2013-03-09 12:40:00,35.1,32.4,29.75,SE,135,3.0,6.0,90,0.00,,,0.37,meteohub,2013-03-09 18:40:00,
2013-03-09 12:45:00,35.1,32.4,29.76,SW,225,4.0,6.0,90,0.00,,,0.37,meteohub,2013-03-09 18:45:00,
2013-03-09 12:50:00,35.2,32.5,29.75,SE,135,4.0,6.0,90,0.00,,,0.37,meteohub,2013-03-09 18:50:00,
2013-03-09 12:55:00,35.2,32.5,29.76,ESE,113,3.0,6.0,90,0.01,,,0.38,meteohub,2013-03-09 18:55:00,
2013-03-09 13:00:00,35.2,32.5,29.76,NE,45,4.0,4.0,90,0.01,,,0.38,meteohub,2013-03-09 19:00:00,
2013-03-09 13:05:00,35.2,32.5,29.76,East,90,4.0,4.0,90,0.02,,,0.39,meteohub,2013-03-09 19:05:00,
2013-03-09 13:10:00,35.2,32.5,29.75,NE,45,4.0,4.0,90,0.02,,,0.39,meteohub,2013-03-09 19:10:00,
2013-03-09 13:15:00,35.2,32.5,29.75,ESE,113,6.0,6.0,90,0.02,,,0.39,meteohub,2013-03-09 19:15:00,
2013-03-09 13:20:00,35.2,32.5,29.75,East,90,4.0,6.0,90,0.02,,,0.39,meteohub,2013-03-09 19:20:00,
2013-03-09 13:25:00,35.2,32.5,29.75,NNW,338,3.0,6.0,90,0.02,,,0.39,meteohub,2013-03-09 19:25:00,
2013-03-09 13:30:00,35.2,32.5,29.74,SE,135,5.0,6.0,90,0.02,,,0.39,meteohub,2013-03-09 19:30:00,
2013-03-09 13:35:00,35.4,32.7,29.74,ESE,113,3.0,6.0,90,0.04,,,0.40,meteohub,2013-03-09 19:35:00,
2013-03-09 13:40:00,35.4,32.7,29.73,SE,135,4.0,6.0,90,0.04,,,0.40,meteohub,2013-03-09 19:40:00,
2013-03-09 13:45:00,35.4,32.7,29.73,East,90,6.0,6.0,90,0.04,,,0.40,meteohub,2013-03-09 19:45:00,
2013-03-09 13:50:00,35.4,32.7,29.72,East,90,4.0,6.0,90,0.02,,,0.40,meteohub,2013-03-09 19:50:00,
2013-03-09 13:55:00,35.4,32.7,29.72,East,90,3.0,6.0,90,0.02,,,0.40,meteohub,2013-03-09 19:55:00,
2013-03-09 14:00:00,35.4,32.7,29.71,SE,135,6.0,6.0,90,0.04,,,0.41,meteohub,2013-03-09 20:00:00,
2013-03-09 14:06:00,35.4,32.7,29.72,SE,135,6.0,6.0,90,0.02,,,0.41,meteohub,2013-03-09 20:06:00,
2013-03-09 14:11:00,35.6,32.7,29.71,NE,45,4.0,6.0,89,0.02,,,0.41,meteohub,2013-03-09 20:11:00,
2013-03-09 14:16:00,35.6,32.7,29.71,East,90,8.0,8.0,89,0.02,,,0.41,meteohub,2013-03-09 20:16:00,
2013-03-09 14:21:00,35.6,32.7,29.71,East,90,4.0,8.0,89,0.02,,,0.41,meteohub,2013-03-09 20:21:00,
2013-03-09 14:26:00,35.6,32.7,29.71,East,90,5.0,8.0,89,0.04,,,0.43,meteohub,2013-03-09 20:26:00,
2013-03-09 14:31:00,35.6,32.7,29.71,ESE,113,4.0,8.0,89,0.04,,,0.43,meteohub,2013-03-09 20:31:00,
2013-03-09 14:36:00,35.4,32.7,29.71,NE,45,3.0,7.0,90,0.02,,,0.43,meteohub,2013-03-09 20:36:00,
2013-03-09 14:41:00,35.4,32.7,29.71,SE,135,6.0,7.0,90,0.02,,,0.43,meteohub,2013-03-09 20:41:00,
2013-03-09 14:46:00,35.4,32.7,29.71,SE,135,3.0,7.0,90,0.02,,,0.43,meteohub,2013-03-09 20:46:00,
2013-03-09 14:51:00,35.6,32.7,29.70,SE,135,4.0,6.0,89,0.04,,,0.44,meteohub,2013-03-09 20:51:00,
2013-03-09 14:56:00,35.6,32.7,29.70,SE,135,4.0,6.0,89,0.02,,,0.44,meteohub,2013-03-09 20:56:00,
2013-03-09 15:01:00,35.4,32.7,29.70,SW,225,2.0,6.0,90,0.02,,,0.44,meteohub,2013-03-09 21:01:00,
2013-03-09 15:06:00,35.4,32.7,29.70,NE,45,3.0,8.0,90,0.02,,,0.44,meteohub,2013-03-09 21:06:00,
2013-03-09 15:11:00,35.4,32.7,29.70,SE,135,7.0,8.0,90,0.02,,,0.44,meteohub,2013-03-09 21:11:00,
2013-03-09 15:16:00,35.2,32.5,29.70,SE,135,4.0,8.0,90,0.02,,,0.44,meteohub,2013-03-09 21:16:00,
2013-03-09 15:21:00,35.4,32.7,29.70,East,90,5.0,7.0,90,0.02,,,0.44,meteohub,2013-03-09 21:21:00,
2013-03-09 15:26:00,35.4,32.7,29.71,SE,135,3.0,7.0,90,0.01,,,0.44,meteohub,2013-03-09 21:26:00,
2013-03-09 15:31:00,35.4,32.7,29.70,SE,135,6.0,7.0,90,0.01,,,0.44,meteohub,2013-03-09 21:31:00,
2013-03-09 15:36:00,35.2,32.5,29.70,South,180,3.0,6.0,90,0.01,,,0.44,meteohub,2013-03-09 21:36:00,
2013-03-09 15:41:00,35.4,32.7,29.71,NNE,23,4.0,6.0,90,0.02,,,0.45,meteohub,2013-03-09 21:41:00,
2013-03-09 15:46:00,35.4,32.7,29.70,East,90,2.0,6.0,90,0.02,,,0.45,meteohub,2013-03-09 21:46:00,
2013-03-09 15:51:00,35.6,32.7,29.70,East,90,3.0,5.0,89,0.01,,,0.45,meteohub,2013-03-09 21:51:00,
2013-03-09 15:56:00,35.6,32.7,29.70,SE,135,3.0,5.0,89,0.02,,,0.46,meteohub,2013-03-09 21:56:00,
2013-03-09 16:01:00,35.6,32.7,29.70,East,90,2.0,5.0,89,0.02,,,0.46,meteohub,2013-03-09 22:01:00,
2013-03-09 16:06:00,35.6,32.7,29.70,East,90,2.0,3.0,89,0.02,,,0.46,meteohub,2013-03-09 22:06:00,
2013-03-09 16:11:00,35.4,32.7,29.69,SE,135,2.0,4.0,90,0.02,,,0.46,meteohub,2013-03-09 22:11:00,
2013-03-09 16:16:00,35.6,32.7,29.69,SE,135,3.0,4.0,89,0.02,,,0.46,meteohub,2013-03-09 22:16:00,
2013-03-09 16:21:00,35.6,32.7,29.69,SE,135,5.0,5.0,89,0.02,,,0.46,meteohub,2013-03-09 22:21:00,
2013-03-09 16:26:00,35.6,32.7,29.69,East,90,3.0,5.0,89,0.02,,,0.46,meteohub,2013-03-09 22:26:00,
2013-03-09 16:31:00,35.6,32.7,29.69,SE,135,4.0,5.0,89,0.02,,,0.46,meteohub,2013-03-09 22:31:00,
2013-03-09 16:36:00,35.4,32.7,29.68,SE,135,4.0,5.0,90,0.02,,,0.46,meteohub,2013-03-09 22:36:00,
2013-03-09 16:41:00,35.4,32.7,29.69,East,90,2.0,7.0,90,0.01,,,0.46,meteohub,2013-03-09 22:41:00,
2013-03-09 16:46:00,35.4,32.7,29.69,East,90,4.0,7.0,90,0.01,,,0.46,meteohub,2013-03-09 22:46:00,
2013-03-09 16:51:00,35.4,32.7,29.69,SE,135,3.0,5.0,90,0.01,,,0.46,meteohub,2013-03-09 22:51:00,
2013-03-09 16:56:00,35.4,32.7,29.70,SW,225,2.0,5.0,90,0.00,,,0.46,meteohub,2013-03-09 22:56:00,
2013-03-09 17:01:00,35.2,32.5,29.70,East,90,4.0,5.0,90,0.00,,,0.46,meteohub,2013-03-09 23:01:00,
2013-03-09 17:06:00,35.2,32.5,29.69,SE,135,5.0,5.0,90,0.00,,,0.46,meteohub,2013-03-09 23:06:00,
2013-03-09 17:11:00,35.4,32.7,29.70,East,90,2.0,5.0,90,0.00,,,0.46,meteohub,2013-03-09 23:11:00,
2013-03-09 17:16:00,35.2,32.5,29.69,South,180,6.0,6.0,90,0.00,,,0.46,meteohub,2013-03-09 23:16:00,
2013-03-09 17:21:00,35.2,32.9,29.70,North,0,2.0,6.0,91,0.00,,,0.46,meteohub,2013-03-09 23:21:00,
2013-03-09 17:26:00,35.2,32.9,29.70,SE,135,2.0,6.0,91,0.00,,,0.46,meteohub,2013-03-09 23:26:00,
2013-03-09 17:31:00,35.2,32.5,29.70,SE,135,2.0,6.0,90,0.00,,,0.46,meteohub,2013-03-09 23:31:00,
2013-03-09 17:36:00,35.2,32.9,29.69,ESE,113,4.0,4.0,91,0.01,,,0.47,meteohub,2013-03-09 23:36:00,
2013-03-09 17:41:00,35.2,32.5,29.69,SW,225,2.0,4.0,90,0.01,,,0.47,meteohub,2013-03-09 23:41:00,
2013-03-09 17:46:00,35.2,32.5,29.69,East,90,7.0,7.0,90,0.02,,,0.48,meteohub,2013-03-09 23:46:00,
2013-03-09 17:51:00,35.1,32.4,29.70,ENE,68,2.0,7.0,90,0.02,,,0.48,meteohub,2013-03-09 23:51:00,
2013-03-09 17:57:00,35.2,32.5,29.69,SE,135,3.0,7.0,90,0.02,,,0.48,meteohub,2013-03-09 23:57:00,
2013-03-09 18:02:00,35.1,32.4,29.69,SE,135,4.0,7.0,90,0.02,,,0.48,meteohub,2013-03-10 00:02:00,
2013-03-09 18:07:00,35.1,32.4,29.70,SE,135,4.0,4.0,90,0.02,,,0.00,meteohub,2013-03-10 00:07:00,
2013-03-09 18:12:00,35.1,32.4,29.69,SW,225,3.0,4.0,90,0.02,,,0.00,meteohub,2013-03-10 00:12:00,
2013-03-09 18:17:00,35.1,32.4,29.70,NW,315,1.0,4.0,90,0.02,,,0.00,meteohub,2013-03-10 00:17:00,
2013-03-09 18:22:00,35.1,32.4,29.70,NW,315,1.0,4.0,90,0.02,,,0.00,meteohub,2013-03-10 00:22:00,
2013-03-09 18:27:00,34.9,32.2,29.70,East,90,2.0,3.0,90,0.02,,,0.00,meteohub,2013-03-10 00:27:00,
2013-03-09 18:32:00,34.9,32.2,29.70,SE,135,2.0,3.0,90,0.01,,,0.00,meteohub,2013-03-10 00:32:00,
2013-03-09 18:37:00,34.9,32.2,29.70,South,180,1.0,3.0,90,0.01,,,0.00,meteohub,2013-03-10 00:37:00,
2013-03-09 18:42:00,34.9,32.2,29.70,East,90,0.0,3.0,90,0.01,,,0.00,meteohub,2013-03-10 00:42:00,
2013-03-09 18:47:00,34.9,32.2,29.69,South,180,0.0,2.0,90,0.00,,,0.00,meteohub,2013-03-10 00:47:00,
2013-03-09 18:52:00,34.9,32.2,29.70,NE,45,2.0,2.0,90,0.00,,,0.00,meteohub,2013-03-10 00:52:00,
2013-03-09 18:57:00,34.9,32.2,29.70,SE,135,2.0,2.0,90,0.00,,,0.00,meteohub,2013-03-10 00:57:00,
2013-03-09 19:02:00,34.9,32.2,29.70,SE,135,0.0,2.0,90,0.00,,,0.00,meteohub,2013-03-10 01:02:00,
2013-03-09 19:07:00,34.9,32.2,29.71,SE,135,0.0,2.0,90,0.00,,,0.00,meteohub,2013-03-10 01:07:00,
2013-03-09 19:12:00,34.7,32.0,29.70,South,180,0.0,2.0,90,0.00,,,0.00,meteohub,2013-03-10 01:12:00,
2013-03-09 19:17:00,34.9,32.2,29.71,NE,45,0.0,1.0,90,0.00,,,0.00,meteohub,2013-03-10 01:17:00,
2013-03-09 19:22:00,34.7,32.0,29.72,NE,45,0.0,2.0,90,0.00,,,0.00,meteohub,2013-03-10 01:22:00,
2013-03-09 19:27:00,34.9,32.2,29.72,SE,135,0.0,2.0,90,0.00,,,0.00,meteohub,2013-03-10 01:27:00,
2013-03-09 19:32:00,34.9,32.2,29.71,East,90,1.0,2.0,90,0.00,,,0.00,meteohub,2013-03-10 01:32:00,
2013-03-09 19:37:00,34.9,32.2,29.72,SE,135,0.0,1.0,90,0.00,,,0.00,meteohub,2013-03-10 01:37:00,
2013-03-09 19:42:00,34.7,32.0,29.72,SE,135,0.0,1.0,90,0.00,,,0.00,meteohub,2013-03-10 01:42:00,
2013-03-09 19:47:00,34.9,32.2,29.72,East,90,2.0,2.0,90,0.00,,,0.00,meteohub,2013-03-10 01:47:00,
2013-03-09 19:52:00,34.9,32.2,29.71,SE,135,1.0,2.0,90,0.01,,,0.01,meteohub,2013-03-10 01:52:00,
2013-03-09 19:57:00,34.7,32.0,29.71,SE,135,0.0,2.0,90,0.01,,,0.01,meteohub,2013-03-10 01:57:00,
2013-03-09 20:02:00,34.7,32.0,29.71,SE,135,0.0,2.0,90,0.01,,,0.01,meteohub,2013-03-10 02:02:00,
2013-03-09 20:07:00,34.7,32.0,29.72,SE,135,0.0,1.0,90,0.01,,,0.01,meteohub,2013-03-10 02:07:00,
2013-03-09 20:12:00,34.7,32.0,29.73,East,90,0.0,1.0,90,0.01,,,0.01,meteohub,2013-03-10 02:12:00,
2013-03-09 20:17:00,34.7,32.0,29.73,SW,225,0.0,0.0,90,0.01,,,0.01,meteohub,2013-03-10 02:17:00,
2013-03-09 20:22:00,34.7,32.0,29.73,SW,225,0.0,1.0,90,0.01,,,0.01,meteohub,2013-03-10 02:22:00,
2013-03-09 20:27:00,34.7,32.0,29.72,East,90,0.0,1.0,90,0.01,,,0.01,meteohub,2013-03-10 02:27:00,
2013-03-09 20:33:00,34.7,32.0,29.72,East,90,0.0,1.0,90,0.01,,,0.01,meteohub,2013-03-10 02:33:00,
2013-03-09 20:38:00,34.7,32.0,29.71,East,90,1.0,1.0,90,0.01,,,0.01,meteohub,2013-03-10 02:38:00,
2013-03-09 20:43:00,34.7,32.0,29.71,NE,45,0.0,1.0,90,0.01,,,0.01,meteohub,2013-03-10 02:43:00,
2013-03-09 20:48:00,34.7,32.0,29.72,SE,135,0.0,2.0,90,0.01,,,0.01,meteohub,2013-03-10 02:48:00,
2013-03-09 20:53:00,34.7,32.0,29.72,East,90,2.0,2.0,90,0.00,,,0.01,meteohub,2013-03-10 02:53:00,
2013-03-09 20:58:00,34.7,32.0,29.72,East,90,0.0,2.0,90,0.00,,,0.01,meteohub,2013-03-10 02:58:00,
2013-03-09 21:03:00,34.5,31.8,29.73,East,90,0.0,2.0,90,0.00,,,0.01,meteohub,2013-03-10 03:03:00,
2013-03-09 21:08:00,34.5,31.8,29.73,East,90,0.0,2.0,90,0.00,,,0.01,meteohub,2013-03-10 03:08:00,
2013-03-09 21:13:00,34.5,31.8,29.73,East,90,0.0,1.0,90,0.00,,,0.01,meteohub,2013-03-10 03:13:00,
2013-03-09 21:18:00,34.5,31.8,29.73,East,90,0.0,0.0,90,0.00,,,0.01,meteohub,2013-03-10 03:18:00,
2013-03-09 21:23:00,34.5,31.8,29.74,East,90,0.0,0.0,90,0.00,,,0.01,meteohub,2013-03-10 03:23:00,
2013-03-09 21:28:00,34.7,32.0,29.73,East,90,0.0,0.0,90,0.00,,,0.01,meteohub,2013-03-10 03:28:00,
2013-03-09 21:33:00,34.7,32.0,29.74,East,90,0.0,0.0,90,0.00,,,0.01,meteohub,2013-03-10 03:33:00,
2013-03-09 21:38:00,34.7,32.0,29.74,East,90,0.0,0.0,90,0.00,,,0.01,meteohub,2013-03-10 03:38:00,
2013-03-09 21:43:00,34.7,32.0,29.74,East,90,0.0,0.0,90,0.00,,,0.01,meteohub,2013-03-10 03:43:00,
2013-03-09 21:48:00,34.5,31.8,29.74,East,90,0.0,0.0,90,0.00,,,0.01,meteohub,2013-03-10 03:48:00,
2013-03-09 21:53:00,34.5,31.8,29.74,East,90,0.0,0.0,90,0.00,,,0.01,meteohub,2013-03-10 03:53:00,
2013-03-09 21:58:00,34.7,32.0,29.74,East,90,0.0,0.0,90,0.00,,,0.01,meteohub,2013-03-10 03:58:00,
2013-03-09 22:03:00,34.7,32.0,29.74,East,90,0.0,0.0,90,0.00,,,0.01,meteohub,2013-03-10 04:03:00,
2013-03-09 22:08:00,34.7,32.0,29.74,East,90,0.0,0.0,90,0.00,,,0.01,meteohub,2013-03-10 04:08:00,
2013-03-09 22:13:00,34.7,32.0,29.74,West,270,1.0,0.0,90,0.00,,,0.01,meteohub,2013-03-10 04:13:00,
2013-03-09 22:18:00,34.7,32.0,29.74,West,270,1.0,0.0,90,0.00,,,0.01,meteohub,2013-03-10 04:18:00,
2013-03-09 22:23:00,34.5,31.8,29.75,SW,225,2.0,2.0,90,0.00,,,0.01,meteohub,2013-03-10 04:23:00,
2013-03-09 22:28:00,34.5,31.8,29.75,West,270,2.0,2.0,90,0.00,,,0.01,meteohub,2013-03-10 04:28:00,
2013-03-09 22:33:00,34.7,32.0,29.75,West,270,2.0,2.0,90,0.00,,,0.01,meteohub,2013-03-10 04:33:00,
2013-03-09 22:38:00,34.7,32.0,29.76,NW,315,3.0,3.0,90,0.00,,,0.01,meteohub,2013-03-10 04:38:00,
2013-03-09 22:43:00,34.7,32.0,29.76,West,270,2.0,3.0,90,0.00,,,0.01,meteohub,2013-03-10 04:43:00,
2013-03-09 22:48:00,34.7,32.0,29.76,West,270,2.0,3.0,90,0.00,,,0.01,meteohub,2013-03-10 04:48:00,
2013-03-09 22:53:00,34.7,32.0,29.76,West,270,2.0,3.0,90,0.00,,,0.01,meteohub,2013-03-10 04:53:00,
2013-03-09 22:58:00,34.7,32.0,29.76,West,270,3.0,3.0,90,0.00,,,0.01,meteohub,2013-03-10 04:58:00,
2013-03-09 23:00:00,34.7,32.0,29.76,West,270,3.0,3.0,90,0.00,,,0.01,meteohub,2013-03-10 05:00:00,
2013-03-09 23:05:00,34.7,32.0,29.76,NW,315,2.0,3.0,90,0.00,,,0.01,meteohub,2013-03-10 05:05:00,
2013-03-09 23:10:00,34.7,32.0,29.76,West,270,2.0,3.0,90,0.00,,,0.01,meteohub,2013-03-10 05:10:00,
2013-03-09 23:15:00,34.7,32.0,29.76,West,270,2.0,3.0,90,0.01,,,0.02,meteohub,2013-03-10 05:15:00,
2013-03-09 23:20:00,34.7,32.0,29.76,West,270,3.0,3.0,90,0.01,,,0.02,meteohub,2013-03-10 05:20:00,
2013-03-09 23:25:00,34.7,32.0,29.76,NW,315,3.0,4.0,90,0.01,,,0.02,meteohub,2013-03-10 05:25:00,
2013-03-09 23:30:00,34.7,32.0,29.76,North,0,3.0,4.0,90,0.01,,,0.02,meteohub,2013-03-10 05:30:00,
2013-03-09 23:35:00,34.7,32.0,29.76,NW,315,2.0,4.0,90,0.01,,,0.02,meteohub,2013-03-10 05:35:00,
2013-03-09 23:40:00,34.9,32.2,29.76,NW,315,4.0,4.0,90,0.01,,,0.02,meteohub,2013-03-10 05:40:00,
2013-03-09 23:45:00,34.9,32.2,29.76,West,270,3.0,4.0,90,0.02,,,0.04,meteohub,2013-03-10 05:45:00,
2013-03-09 23:51:00,34.7,32.0,29.76,SW,225,4.0,4.0,90,0.02,,,0.04,meteohub,2013-03-10 05:51:00,
2013-03-09 23:56:00,34.7,32.0,29.76,NW,315,4.0,6.0,90,0.02,,,0.04,meteohub,2013-03-10 05:56:00,